We konden geen weer-waarchuwingen ophalen. Ga rechtstreeks naar de Meteoalarm site : www.meteoalarm.eu en controleer daar .



Onweer radar Meer informatie blitzortung!


Regen radar Meer informatie rain snow radar


Bezoek onze andere website:

Template documentation
and downloads

And another site



15 daagse weersverwachting Thun (CH)

  • Overzicht
  • Per uur
  • 15 dagen
  • Extra
  • Vergelijk
  • Kaarten
  • Dagkaart
  • Meer »
  • Info
  • Statistieken
  • Directe link
    Temp 6h Neerslag Wind  
 06:32     20:36    Daglengte: 14:04 Vandaag
14:00
26°
 
2
20:00
20°
4.0 mm
2
 06:33     20:34    Daglengte: 14:01 Morgen
02:00
18°
8.4 mm
1
08:00
17°
 
1
14:00
22°
3.9 mm
2
20:00
19°
7.5 mm
1
 06:34     20:33    Daglengte: 13:59 Vrijdag 19 Aug
02:00
17°
30.1 mm
1
08:00
16°
43.7 mm
1
14:00
19°
59.8 mm
1
20:00
19°
29.1 mm
1
 06:35     20:31    Daglengte: 13:56 Zaterdag 20 Aug
02:00
16°
 
1
08:00
16°
 
1
Locatie info
Region: Thun
Latitude: 46.7570°N
Longitude: 7.6303°E
565 masl
Postcode: 3600
Temp/Neerslag /Baro Onweer/Dauwpunt
    Temp Baro 1h Neerslag Dauwpunt Wind UV Bewolking  
 06:32     20:36    Daglengte: 14:04 Vandaag
13:00
26°
1011.4 hPa
48%
16.8°
3
Windvlaag: -5.2 m/s
50%
14:00
26°
1010.9 hPa
78%
16.1°
2
Windvlaag: -4.9 m/s
56%
15:00
26°
1010.8 hPa
82%
17.1°
2
Windvlaag: -3.1 m/s
46%
16:00
26°
1010.3 hPa
42%
17.2°
2
Windvlaag: -3.4 m/s
60%
17:00
24°
1010.9 hPa
82%
15.9°
2
Windvlaag: -2.9 m/s
67%
18:00
22°
1011.4 hPa 1.7 mm
82%
14.1°
2
Windvlaag: -2.8 m/s
75% warningclass
19:00
21°
1011.3 hPa 1.5 mm
82%
13.3°
1
Windvlaag: -0.5 m/s
78%
20:00
20°
1011.5 hPa 0.8 mm
81%
14.7°
2
Windvlaag: 4.4 m/s
73%
21:00
19°
1012.3 hPa 2.5 mm
82%
15.2°
1
Windvlaag: 4.2 m/s
84%
22:00
19°
1013.1 hPa 2.7 mm
82%
15.4°
1
Windvlaag: 3.4 m/s
86% warningclass
23:00
18°
1013.8 hPa 1.9 mm
82%
15.2°
2
Windvlaag: 1.2 m/s
86%
 06:33     20:34    Daglengte: 14:01 Morgen
00:00
18°
1013.9 hPa 1.3 mm
76%
15.6°
1
Windvlaag: 0.9 m/s
83%
01:00
18°
1013.4 hPa
29%
15.8°
1
Windvlaag: 1 m/s
46%
02:00
18°
1012.9 hPa
26%
15.7°
1
Windvlaag: -1 m/s
64%
03:00
17°
1012.4 hPa
27%
14.9°
1
Windvlaag: -1.8 m/s
64%
04:00
17°
1012.1 hPa
29%
15.1°
1
Windvlaag: -1.6 m/s
80%
05:00
17°
1011.8 hPa
27%
14.8°
1
Windvlaag: -0.7 m/s
80%
06:00
16°
1011.4 hPa
76%
14.6°
1
Windvlaag: -0.6 m/s
80%
07:00
17°
1011.8 hPa
77%
14.6°
1
Windvlaag: -0.8 m/s
77%
08:00
17°
1012.1 hPa
76%
14.6°
1
Windvlaag: -0.6 m/s
77%
09:00
18°
1012.3 hPa 0.7 mm
78%
14.9°
1
Windvlaag: 1.4 m/s
75%
10:00
18°
1012.4 hPa 1.0 mm
80%
14.9°
1
Windvlaag: 1.2 m/s
76%
11:00
19°
1012.4 hPa 0.9 mm
82%
14.7°
1
Windvlaag: -2 m/s
73%
12:00
20°
1012.4 hPa 0.8 mm
82%
14.6°
1
Windvlaag: -1.7 m/s
72%
13:00
21°
1012.0 hPa 0.7 mm
82%
16.8°
2
Windvlaag: -1.8 m/s
70%
14:00
22°
1011.4 hPa
82%
17.8°
2
Windvlaag: -2 m/s
63%
15:00
22°
1011.0 hPa
82%
17.9°
2
Windvlaag: -2 m/s
56%
16:00
23°
1010.7 hPa
82%
17.7°
2
Windvlaag: -1.8 m/s
79%
17:00
22°
1010.5 hPa
82%
16.9°
1
Windvlaag: -1.6 m/s
82%
18:00
22°
1010.6 hPa 1.0 mm
82%
18.0°
1
Windvlaag: -2 m/s
69%
19:00
20°
1011.1 hPa 3.3 mm
82%
16.8°
1
Windvlaag: -1.5 m/s
71%
20:00
19°
1011.4 hPa 3.2 mm
82%
16.3°
1
Windvlaag: -1.8 m/s
71%
21:00
18°
1012.0 hPa 2.5 mm
82%
16.5°
1
Windvlaag: 2.5 m/s
86%
22:00
18°
1012.4 hPa 3.8 mm
82%
16.7°
1
Windvlaag: 2.9 m/s
86%
23:00
18°
1012.7 hPa 5.9 mm
82%
16.5°
1
Windvlaag: 2.2 m/s
86%
 06:34     20:33    Daglengte: 13:59 Vrijdag 19 Aug
00:00
17°
1012.8 hPa 6.7 mm
82%
16.3°
1
Windvlaag: 2.7 m/s
86%
01:00
17°
1012.8 hPa 5.8 mm
82%
16.1°
1
Windvlaag: 1.8 m/s
85%
02:00
17°
1012.7 hPa 5.4 mm
82%
16.0°
1
Windvlaag: 1.3 m/s
86%
03:00
17°
1012.7 hPa 5.9 mm
82%
16.1°
1
Windvlaag: 0 m/s
86%
04:00
17°
1012.7 hPa 6.1 mm
82%
15.9°
1
Windvlaag: 0.3 m/s
86%
05:00
16°
1013.2 hPa 6.0 mm
100%
15.1°
1
Windvlaag: 1.6 m/s
100%
06:00
16°
1013.5 hPa 7.0 mm
100%
15.8°
0
Windvlaag: 1.3 m/s
100%
07:00
16°
1014.2 hPa 9.9 mm
100%
15.6°
1
Windvlaag: 1.9 m/s
100%
08:00
16°
1014.6 hPa 8.7 mm
100%
15.7°
1
Windvlaag: 2.1 m/s
100%
09:00
16°
1015.4 hPa 9.2 mm
100%
16.3°
1
Windvlaag: 1.4 m/s
99%
10:00
17°
1016.1 hPa 9.2 mm
100%
16.4°
1
Windvlaag: 0.4 m/s
94%
11:00
17°
1016.6 hPa 9.4 mm
100%
16.7°
1
Windvlaag: 0.2 m/s
86%
12:00
17°
1017.0 hPa 10.2 mm
100%
17.2°
1
Windvlaag: 0.3 m/s
73%
13:00
19°
1017.1 hPa 10.8 mm
100%
18.2°
2
Windvlaag: -0.4 m/s
64%
14:00
19°
1017.2 hPa 10.9 mm
95%
18.1°
1
Windvlaag: -0.7 m/s
29%
15:00
20°
1017.0 hPa 18.1 mm
100%
17.3°
1
Windvlaag: -0.9 m/s
73%
16:00
20°
1017.1 hPa 11.1 mm
98%
15.7°
2
Windvlaag: -1.1 m/s
56%
17:00
21°
1017.0 hPa
95%
15.7°
1
Windvlaag: -1 m/s
15%
18:00
21°
1016.8 hPa
91%
16.8°
1
Windvlaag: 2.2 m/s
17%
19:00
20°
1017.1 hPa
45%
17.9°
1
Windvlaag: 2.8 m/s
22%
20:00
19°
1017.5 hPa
39%
18.2°
1
Windvlaag: 3.2 m/s
12%
21:00
18°
1018.1 hPa
33%
16.8°
2
Windvlaag: 3.8 m/s
13%
22:00
18°
1018.5 hPa
71%
16.0°
2
Windvlaag: 3.6 m/s
17%
23:00
17°
1018.9 hPa
22%
15.4°
1
Windvlaag: 2.7 m/s
33%
 06:35     20:31    Daglengte: 13:56 Zaterdag 20 Aug
00:00
16°
1019.1 hPa
22%
14.4°
2
Windvlaag: 7.2 m/s
16%
01:00
16°
1019.2 hPa
21%
13.9°
1
Windvlaag: 6 m/s
11%
02:00
16°
1019.2 hPa
21%
13.7°
1
Windvlaag: 5.7 m/s
22%
03:00
15°
1019.0 hPa
21%
13.4°
1
Windvlaag: 4.4 m/s
16%
04:00
15°
1019.0 hPa
21%
13.6°
2
Windvlaag: 4.4 m/s
18%
05:00
15°
1018.9 hPa
21%
13.8°
2
Windvlaag: 4.3 m/s
20%
06:00
15°
1018.8 hPa
21%
14.3°
1
Windvlaag: 4.4 m/s
20%
07:00
15°
1019.2 hPa
21%
14.4°
1
Windvlaag: 4.5 m/s
72%
08:00
16°
1019.5 hPa
28%
14.9°
1
Windvlaag: 5.4 m/s
86%
09:00
17°
1019.5 hPa
29%
16.4°
1
Windvlaag: 5.4 m/s
69%
10:00
18°
1019.5 hPa
32%
17.1°
1
Windvlaag: 5.6 m/s
66%
11:00
19°
1019.5 hPa
29%
16.9°
1
Windvlaag: 4.1 m/s
79%
12:00
20°
1019.2 hPa
26%
16.9°
1
Windvlaag: 3.5 m/s
65%
Temp/Neerslag /Baro Onweer/Dauwpunt
    Temp Baro Neerslag Dauwpunt Wind Bewolking  
 06:32     20:36    Daglengte: 14:04 Vandaag
14:00
26°
1010.9 hPa   16.1°
2
56%
17:00
24°
1010.9 hPa   15.9°
2
67%
20:00
20°
1011.5 hPa 4.0 mm 14.7°
2
73%
23:00
18°
1013.8 hPa 7.1 mm 15.2°
2
86%
 06:33     20:34    Daglengte: 14:01 Morgen
02:00
18°
1012.9 hPa 1.3 mm 15.7°
1
64%
05:00
17°
1011.8 hPa   14.8°
1
80%
08:00
17°
1012.1 hPa   14.6°
1
77%
11:00
19°
1012.4 hPa 2.5 mm 14.7°
1
73%
14:00
22°
1011.4 hPa 1.4 mm 17.8°
2
63%
17:00
22°
1010.5 hPa   16.9°
1
82%
20:00
19°
1011.4 hPa 7.5 mm 16.3°
1
71%
23:00
18°
1012.7 hPa 12.2 mm 16.5°
1
86%
 06:34     20:33    Daglengte: 13:59 Vrijdag 19 Aug
02:00
17°
1012.7 hPa 17.9 mm 16.0°
1
86%
05:00
16°
1013.2 hPa 18.0 mm 15.1°
1
100%
08:00
16°
1014.6 hPa 25.7 mm 15.7°
1
100%
11:00
17°
1016.6 hPa 27.8 mm 16.7°
1
86%
14:00
19°
1017.2 hPa 32.0 mm 18.1°
1
29%
17:00
21°
1017.0 hPa 29.1 mm 15.7°
1
15%
20:00
19°
1017.5 hPa   18.2°
1
12%
23:00
17°
1018.9 hPa   15.4°
1
33%
 06:35     20:31    Daglengte: 13:56 Zaterdag 20 Aug
02:00
16°
1019.2 hPa   13.7°
1
22%
05:00
15°
1018.9 hPa   13.8°
2
20%
08:00
16°
1019.5 hPa   14.9°
1
86%
11:00
19°
1019.5 hPa   16.9°
1
79%
14:00
21°
1018.6 hPa   20.1°
2
71%
17:00
20°
1019.5 hPa 94.4 mm 16.9°
1
1%
20:00
18°
1020.6 hPa 96.0 mm 16.0°
0
1%
23:00
16°
1021.6 hPa 96.1 mm 14.8°
2
0%
 06:37     20:29    Daglengte: 13:52 Zondag 21 Aug
02:00
15°
1021.0 hPa 96.1 mm 13.8°
2
0%
05:00
14°
1020.1 hPa 96.1 mm 13.1°
2
0%
08:00
16°
1019.2 hPa 96.1 mm 14.0°
1
0%
11:00
22°
1017.6 hPa 96.1 mm 14.0°
2
1%
14:00
25°
1015.8 hPa 96.1 mm 13.4°
2
1%
17:00
24°
1014.9 hPa 96.1 mm 13.4°
2
1%
20:00
19°
1016.0 hPa 96.1 mm 13.7°
1
1%
23:00
17°
1016.6 hPa 96.1 mm 12.7°
2
1%
 06:38     20:27    Daglengte: 13:49 Maandag 22 Aug
02:00
15°
1016.3 hPa 96.1 mm 11.7°
2
1%
05:00
14°
1016.0 hPa 96.1 mm 10.5°
2
1%
08:00
16°
1015.8 hPa 96.1 mm 11.2°
2
1%
11:00
23°
1013.8 hPa 96.1 mm 12.4°
1
0%
14:00
25°
1013.1 hPa 96.1 mm 11.9°
2
1%
17:00
23°
1013.5 hPa 96.2 mm 16.3°
1
1%
20:00
19°
1014.4 hPa 96.3 mm 14.0°
2
1%
23:00
18°
1015.2 hPa 96.3 mm 13.4°
2
1%
 06:39     20:25    Daglengte: 13:46 Dinsdag 23 Aug
02:00
18°
1015.2 hPa 96.3 mm 12.7°
1
1%
05:00
17°
1015.5 hPa 96.3 mm 13.0°
1
1%
08:00
17°
1016.4 hPa 96.3 mm 13.7°
1
1%
11:00
21°
1016.4 hPa 96.3 mm 13.1°
1
1%
14:00
25°
1014.5 hPa 96.3 mm 14.6°
2
1%
17:00
25°
1014.0 hPa 96.3 mm 15.0°
2
1%
20:00
20°
1015.4 hPa 96.3 mm 17.2°
1
1%
23:00
17°
1017.1 hPa 96.3 mm 15.7°
2
1%
 06:40     20:24    Daglengte: 13:44 Woensdag 24 Aug
02:00
17°
1016.5 hPa 96.3 mm 14.5°
2
1%
05:00
17°
1016.1 hPa 96.3 mm 13.9°
2
1%
08:00
19°
1016.0 hPa 96.3 mm 14.8°
1
1%
11:00
25°
1014.8 hPa   16.1°
2
1%
14:00
28°
1013.7 hPa 192.7 mm 15.3°
2
1%
20:00
22°
1014.3 hPa 193.5 mm 16.8°
1
0%
 06:42     20:22    Daglengte: 13:40 Donderdag 25 Aug
02:00
17°
1017.7 hPa 198.8 mm 15.7°
2
1%
08:00
18°
1018.4 hPa 208.3 mm 17.0°
2
1%
14:00
27°
1017.2 hPa 210.3 mm 15.3°
2
1%
20:00
22°
1017.7 hPa 210.9 mm 17.9°
1
0%
 06:43     20:20    Daglengte: 13:37 Vrijdag 26 Aug
02:00
17°
1019.5 hPa 211.1 mm 14.1°
2
1%
08:00
19°
1019.0 hPa 211.1 mm 14.0°
1
0%
14:00
29°
Voelt als: 28.5°
1016.9 hPa 211.1 mm 15.1°
2
1%
20:00
21°
1018.3 hPa 211.3 mm 17.3°
1
1%
 06:44     20:18    Daglengte: 13:34 Zaterdag 27 Aug
02:00
19°
1019.1 hPa 211.5 mm 12.0°
2
1%
08:00
19°
1019.2 hPa 0.6 mm 16.3°
1
46%
14:00
28°
1017.5 hPa 0.6 mm 17.6°
2
37%
20:00
22°
1018.0 hPa 2.0 mm 18.3°
1
59%
 06:46     20:16    Daglengte: 13:30 Zondag 28 Aug
02:00
18°
1019.9 hPa 0.7 mm 15.5°
2
44%
08:00
19°
1020.3 hPa 0.3 mm 16.0°
2
37%
14:00
29°
1018.7 hPa 0.5 mm 17.0°
1
41%
20:00
22°
1019.0 hPa 2.7 mm 18.1°
1
54%
 06:47     20:14    Daglengte: 13:27 Maandag 29 Aug
02:00
18°
1020.7 hPa   15.3°
2
42%
08:00
19°
1021.1 hPa 0.3 mm 15.9°
2
34%
14:00
29°
1019.4 hPa 0.5 mm 16.2°
2
37%
20:00
22°
1019.5 hPa 1.7 mm 17.8°
0
53%
 06:48     20:12    Daglengte: 13:24 Dinsdag 30 Aug
02:00
19°
1020.9 hPa 0.8 mm 15.3°
2
44%
08:00
19°
1020.9 hPa 0.7 mm 15.9°
2
52%
14:00
29°
1018.8 hPa 0.4 mm 16.6°
2
41%
20:00
22°
1018.6 hPa 2.0 mm 17.4°
0
63%
 06:49     20:10    Daglengte: 13:21 Woensdag 31 Aug
02:00
18°
1020.0 hPa 1.7 mm 14.6°
2
51%
08:00
19°
1019.5 hPa 0.8 mm 15.4°
1
50%
14:00
27°
1017.9 hPa 1.1 mm 16.8°
2
48%
20:00
21°
1018.0 hPa 2.8 mm 17.6°
0
65%
 06:51     20:08    Daglengte: 13:17 Donderdag 01 Sep
02:00
17°
1019.2 hPa 1.2 mm 15.1°
2
48%
08:00
18°
1019.0 hPa 0.2 mm 15.5°
1
43%
  CAPE Lifted Index Hail Supercell Tornado SRH 3km CL BTM PRES CL TOP PRES Swiss DWD icon SMHI TS
 06:32     20:36    Daglengte: 14:04 Vandaag
13:00 1072 J/kg -5.3 K 0 % 0 % 0 % 0 m²/s² 0 0 -5.09 3
14:00 1188 J/kg -5.4 K 0 % 0 % 0 % 0 m²/s² 0 0 -5.13 3
15:00 39 J/kg -3.2 K 0 % 0 % 0 % 0 m²/s² 0 0 -1.46 80
16:00 136 J/kg -1.7 K 0 % 0 % 0 % 0 m²/s² 0 0 -0.59 3
17:00 0 J/kg -0.5 K 0 % 0 % 0 % 0 m²/s² 0 0 0.76 80
18:00 0 J/kg 0.9 K 0 % 0 % 0 % 0 m²/s² 0 0 4.41 95
19:00 0 J/kg 1.6 K 0 % 0 % 0 % 0 m²/s² 0 0 6.16 80
20:00 0 J/kg 1.0 K 0 % 0 % 0 % 0 m²/s² 0 0 4.12 80
21:00 0 J/kg 1.4 K 0 % 0 % 0 % 0 m²/s² 0 0 3.14 81
22:00 0 J/kg 1.9 K 0 % 0 % 0 % 0 m²/s² 0 0 3.07 95
23:00 0 J/kg 2.2 K 0 % 0 % 0 % 0 m²/s² 0 0 2.68 80
 06:33     20:34    Daglengte: 14:01 Morgen
00:00 0 J/kg 2.0 K 0 % 0 % 0 % 0 m²/s² 0 0 3.05 3
01:00 0 J/kg 2.4 K 0 % 0 % 0 % 0 m²/s² 0 0 3.57 3
02:00 0 J/kg 3.0 K 0 % 0 % 0 % 0 m²/s² 0 0 4.38 3
03:00 0 J/kg 3.3 K 0 % 0 % 0 % 0 m²/s² 0 0 5.1 3
04:00 0 J/kg 2.4 K 0 % 0 % 0 % 0 m²/s² 0 0 4.26 3
05:00 0 J/kg 2.0 K 0 % 0 % 0 % 0 m²/s² 0 0 3.23 3
06:00 0 J/kg 1.4 K 0 % 0 % 0 % 0 m²/s² 0 0 2.78 80
07:00 0 J/kg 1.4 K 0 % 0 % 0 % 0 m²/s² 0 0 3.59 80
08:00 0 J/kg 1.3 K 0 % 0 % 0 % 0 m²/s² 0 0 3.64 3
09:00 0 J/kg 1.1 K 0 % 0 % 0 % 0 m²/s² 0 0 3.14 80
10:00 0 J/kg 1.5 K 0 % 0 % 0 % 0 m²/s² 0 0 3.6 80
11:00 4 J/kg 0.0 K 0 % 0 % 0 % 0 m²/s² 0 0 1.92 80
12:00 121 J/kg -1.1 K 0 % 0 % 0 % 0 m²/s² 0 0 1 80
13:00 112 J/kg -0.7 K 0 % 0 % 0 % 0 m²/s² 0 0 2.33 80
14:00 83 J/kg -0.3 K 0 % 0 % 0 % 0 m²/s² 0 0 3.09 3
15:00 209 J/kg -0.9 K 0 % 0 % 0 % 0 m²/s² 0 0 2.22 80
16:00 410 J/kg -2.4 K 0 % 0 % 0 % 0 m²/s² 0 0 0.9 80
17:00 550 J/kg -2.6 K 0 % 0 % 0 % 0 m²/s² 0 0 0.88 80
18:00 537 J/kg -1.8 K 0 % 0 % 0 % 0 m²/s² 0 0 0.18 80
19:00 559 J/kg -2.6 K 0 % 0 % 0 % 0 m²/s² 0 0 -0.56 80
20:00 199 J/kg -2.6 K 0 % 0 % 0 % 0 m²/s² 0 0 -1.88 80
21:00 186 J/kg -3.5 K 0 % 0 % 0 % 0 m²/s² 0 0 -2.87 80
22:00 218 J/kg -2.1 K 0 % 0 % 0 % 0 m²/s² 0 0 -2.1 80
23:00 211 J/kg -1.1 K 0 % 0 % 0 % 0 m²/s² 0 0 -0.71 80
 06:34     20:33    Daglengte: 13:59 Vrijdag 19 Aug
00:00 55 J/kg -0.1 K 0 % 0 % 0 % 0 m²/s² 0 0 0.17 80
01:00 69 J/kg -1.0 K 0 % 0 % 0 % 0 m²/s² 0 0 -0.46 80
02:00 63 J/kg -1.4 K 0 % 0 % 0 % 0 m²/s² 0 0 -0.74 80
03:00 51 J/kg -1.9 K 0 % 0 % 0 % 0 m²/s² 0 0 -1.51 80
04:00 52 J/kg -1.8 K 0 % 0 % 0 % 0 m²/s² 0 0 -1.17 80
05:00 54 J/kg -2.3 K 0 % 0 % 0 % 0 m²/s² 0 0 -2.18 61
06:00 32 J/kg -1.8 K 0 % 0 % 0 % 0 m²/s² 0 0 -1.5 61
07:00 8 J/kg -1.3 K 0 % 0 % 0 % 0 m²/s² 0 0 -1.3 63
08:00 0 J/kg -0.6 K 0 % 0 % 0 % 0 m²/s² 0 0 -0.6 61
09:00 27 J/kg -0.1 K 0 % 0 % 0 % 0 m²/s² 0 0 0.02 80
10:00 55 J/kg -1.5 K 0 % 0 % 0 % 0 m²/s² 0 0 -1.5 61
11:00 90 J/kg -0.3 K 0 % 0 % 0 % 0 m²/s² 0 0 -0.3 61
12:00 87 J/kg 1.0 K 0 % 0 % 0 % 0 m²/s² 0 0 1.18 61
13:00 163 J/kg 0.8 K 0 % 0 % 0 % 0 m²/s² 0 0 0.8 3
14:00 113 J/kg 2.0 K 0 % 0 % 0 % 0 m²/s² 0 0 2.18 2
15:00 13 J/kg 3.5 K 0 % 0 % 0 % 0 m²/s² 0 0 3.53 3
16:00 0 J/kg 1.2 K 0 % 0 % 0 % 0 m²/s² 0 0 1.5 3
17:00 15 J/kg -0.1 K 0 % 0 % 0 % 0 m²/s² 0 0 0.47 1
18:00 136 J/kg -1.3 K 0 % 0 % 0 % 0 m²/s² 0 0 -1.27 1
19:00 252 J/kg -1.3 K 0 % 0 % 0 % 0 m²/s² 0 0 -1.12 2
20:00 253 J/kg -1.2 K 0 % 0 % 0 % 0 m²/s² 0 0 -0.54 2
21:00 230 J/kg -1.4 K 0 % 0 % 0 % 0 m²/s² 0 0 -0.59 2
22:00 224 J/kg -0.7 K 0 % 0 % 0 % 0 m²/s² 0 0 0.2 2
23:00 180 J/kg -0.2 K 0 % 0 % 0 % 0 m²/s² 0 0 1.12 1
 06:35     20:31    Daglengte: 13:56 Zaterdag 20 Aug
00:00 119 J/kg 0.8 K 0 % 0 % 0 % 0 m²/s² 0 0 2.39 0
01:00 82 J/kg 1.5 K 0 % 0 % 0 % 0 m²/s² 0 0 2.7 0
02:00 86 J/kg 1.0 K 0 % 0 % 0 % 0 m²/s² 0 0 1.81 0
03:00 55 J/kg 0.6 K 0 % 0 % 0 % 0 m²/s² 0 0 1.5 0
04:00 39 J/kg 0.1 K 0 % 0 % 0 % 0 m²/s² 0 0 0.64 1
05:00 49 J/kg -0.5 K 0 % 0 % 0 % 0 m²/s² 0 0 -0.32 2
06:00 25 J/kg -1.0 K 0 % 0 % 0 % 0 m²/s² 0 0 -0.91 2
07:00 28 J/kg -1.1 K 0 % 0 % 0 % 0 m²/s² 0 0 -0.26 3
08:00 34 J/kg -1.1 K 0 % 0 % 0 % 0 m²/s² 0 0 -0.05 3
09:00 121 J/kg -0.9 K 0 % 0 % 0 % 0 m²/s² 0 0 0.09 3
10:00 321 J/kg -1.1 K 0 % 0 % 0 % 0 m²/s² 0 0 -0.05 3
11:00 714 J/kg -2.1 K 0 % 0 % 0 % 0 m²/s² 0 0 -0.63 3
12:00 954 J/kg -3.0 K 0 % 0 % 0 % 0 m²/s² 0 0 -1.17 3
Temp Baro Wind Neerslag
  EWN Forecast EWN WRFDA DWD ICON FMI HIRLAM MET Norway GFS
 06:32     20:36    Daglengte: 14:04 Vandaag
14:00 26.1° 1010.9 hPa 2.0 m/s 0.0 mm 25.3° 1010.4 hPa 1.7 m/s 1.0 mm 24.5° 1011.6 hPa 1.5 m/s -1.7 mm 26.9° 1010.9 hPa 2.1 m/s 0.0 mm 27.3° 1010.9 hPa 1.9 m/s
17:00 24.4° 1010.9 hPa 1.9 m/s 0.0 mm 18.9° 1011.4 hPa 6.4 m/s 6.4 mm 23.4° 1011.5 hPa 1.1 m/s 1.1 mm 27.7° 1009.9 hPa 0.5 m/s 0.0 mm 24.2° 1010.4 hPa 2.6 m/s
20:00 20.1° 1011.5 hPa 2.3 m/s 4.0 mm 18.6° 1011.0 hPa 2.6 m/s 7.0 mm 19.4° 1012.6 hPa 1.9 m/s 2.7 mm 24.8° 1011.1 hPa 2.2 m/s 0.0 mm 19.6° 1011.1 hPa 1.0 m/s
23:00 18.4° 1013.8 hPa 1.8 m/s 7.1 mm 17.9° 1012.5 hPa 5.9 m/s 7.0 mm 17.6° 1014.6 hPa 1.4 m/s 7.1 mm 21.0° 1012.7 hPa 1.4 m/s 0.0 mm 16.3° 1015.1 hPa 0.7 m/s
 06:33     20:34    Daglengte: 14:01 Morgen
02:00 17.5° 1012.9 hPa 1.2 m/s 1.3 mm 16.0° 1010.4 hPa 1.9 m/s 7.0 mm 17.5° 1013.4 hPa 0.3 m/s 0.2 mm 19.2° 1011.5 hPa 1.0 m/s 0.0 mm 16.5° 1014.8 hPa 0.6 m/s
05:00 16.5° 1011.8 hPa 1.0 m/s 0.0 mm 12.7° 1010.8 hPa 2.7 m/s 7.0 mm 16.4° 1012.9 hPa 1.1 m/s 0.0 mm 18.7° 1010.1 hPa 0.9 m/s 0.0 mm 16.4° 1013.7 hPa 0.9 m/s
08:00 17.2° 1012.1 hPa 0.9 m/s 0.0 mm 16.9° 1010.8 hPa 0.5 m/s 7.0 mm 16.8° 1013.2 hPa 1.0 m/s 1.6 mm 19.8° 1010.0 hPa 1.1 m/s 0.0 mm 16.6° 1013.6 hPa 1.0 m/s
11:00 19.2° 1012.4 hPa 1.5 m/s 2.5 mm 21.5° 1011.5 hPa 1.7 m/s 7.0 mm 17.8° 1013.2 hPa 1.5 m/s 1.9 mm 23.5° 1010.2 hPa 1.4 m/s 0.0 mm 19.8° 1013.8 hPa 0.9 m/s
14:00 21.6° 1011.4 hPa 1.9 m/s 1.4 mm 24.3° 1008.4 hPa 2.9 m/s 7.0 mm 19.5° 1012.9 hPa 1.7 m/s 1.1 mm 23.5° 1008.8 hPa 1.7 m/s 0.0 mm 20.8° 1012.5 hPa 1.5 m/s
17:00 22.5° 1010.5 hPa 1.5 m/s 0.0 mm 24.5° 1007.4 hPa 4.7 m/s 7.0 mm 19.2° 1011.7 hPa 1.1 m/s 2.6 mm 24.8° 1007.7 hPa 0.2 m/s 0.0 mm 20.2° 1011.7 hPa 0.7 m/s
20:00 19.2° 1011.4 hPa 1.1 m/s 7.5 mm 19.1° 1009.0 hPa 2.7 m/s 8.1 mm 18.3° 1012.4 hPa 1.3 m/s 4.3 mm 22.6° 1008.2 hPa 0.6 m/s 0.0 mm 17.4° 1011.7 hPa 0.8 m/s
23:00 17.6° 1012.7 hPa 1.1 m/s 12.2 mm 17.2° 1011.5 hPa 0.8 m/s 28.1 mm 17.2° 1013.3 hPa 0.3 m/s 3.9 mm 20.1° 1009.2 hPa 1.4 m/s 0.0 mm 16.2° 1013.5 hPa 2.0 m/s
 06:34     20:33    Daglengte: 13:59 Vrijdag 19 Aug
02:00 17.0° 1012.7 hPa 0.8 m/s 17.9 mm 16.5° 1010.7 hPa 2.0 m/s 60.2 mm 16.6° 1013.6 hPa 0.5 m/s 3.6 mm 20.0° 1008.9 hPa 1.1 m/s 0.0 mm 15.1° 1014.3 hPa 1.4 m/s
05:00 16.2° 1013.2 hPa 0.7 m/s 18.0 mm 16.0° 1010.7 hPa 1.2 m/s 69.1 mm 16.4° 1013.3 hPa 0.7 m/s 3.3 mm 15.0° 1013.8 hPa 1.0 m/s
08:00 16.0° 1014.6 hPa 0.8 m/s 25.7 mm 15.0° 1011.3 hPa 0.9 m/s 89.3 mm 16.1° 1014.8 hPa 0.9 m/s 15.0 mm 15.3° 1015.0 hPa 1.5 m/s
11:00 16.8° 1016.6 hPa 0.5 m/s 27.8 mm 15.4° 1014.3 hPa 3.1 m/s 125.5 mm 16.8° 1016.8 hPa 0.1 m/s 4.4 mm 16.6° 1016.8 hPa 1.0 m/s
14:00 19.3° 1017.2 hPa 1.4 m/s 32.0 mm 16.1° 1016.3 hPa 3.7 m/s 157.1 mm 19.3° 1017.5 hPa 0.4 m/s 0.9 mm 18.3° 1017.3 hPa 0.8 m/s
17:00 20.6° 1017.0 hPa 1.0 m/s 29.1 mm 18.9° 1015.7 hPa 2.9 m/s 162.1 mm 20.6° 1017.1 hPa 0.8 m/s 0.3 mm 19.5° 1017.8 hPa 1.3 m/s
20:00 19.3° 1017.5 hPa 1.2 m/s 0.0 mm 18.1° 1016.2 hPa 1.0 m/s 164.1 mm 19.3° 1017.9 hPa 1.0 m/s 0.0 mm 16.9° 1018.9 hPa 2.1 m/s
23:00 17.2° 1018.9 hPa 1.4 m/s 0.0 mm 17.8° 1017.5 hPa 2.7 m/s 167.9 mm 16.7° 1019.4 hPa 1.3 m/s 0.0 mm 15.8° 1020.4 hPa 2.0 m/s
 06:35     20:31    Daglengte: 13:56 Zaterdag 20 Aug
02:00 15.9° 1019.2 hPa 1.3 m/s 0.0 mm 17.0° 1018.4 hPa 2.3 m/s 168.7 mm 15.6° 1019.4 hPa 1.0 m/s 0.0 mm 16.3° 1020.0 hPa 1.8 m/s
05:00 15.3° 1018.9 hPa 1.6 m/s 0.0 mm 16.3° 1018.4 hPa 1.9 m/s 168.9 mm 15.0° 1019.1 hPa 1.6 m/s 0.0 mm 15.4° 1019.9 hPa 2.0 m/s
08:00 16.2° 1019.5 hPa 1.1 m/s 0.0 mm 16.6° 1018.8 hPa 1.6 m/s 174.1 mm 16.1° 1019.7 hPa 1.0 m/s 0.0 mm 16.2° 1020.4 hPa 1.6 m/s
11:00 18.8° 1019.5 hPa 0.6 m/s 0.0 mm 18.7° 1019.2 hPa 2.2 m/s 178.7 mm 18.8° 1019.6 hPa 0.2 m/s 0.0 mm 22.5° 1019.2 hPa 1.4 m/s
14:00 21.0° 1018.6 hPa 1.6 m/s 0.0 mm 18.3° 1019.1 hPa 3.1 m/s 183.3 mm 21.6° 1018.5 hPa 1.2 m/s 0.0 mm 24.4° 1018.5 hPa 2.3 m/s
17:00 20.4° 1019.5 hPa 1.2 m/s 94.4 mm 20.4° 1019.5 hPa 1.2 m/s 94.4 mm
20:00 17.9° 1020.6 hPa 0.4 m/s 96.0 mm 17.9° 1020.6 hPa 0.4 m/s 96.0 mm
23:00 15.8° 1021.6 hPa 1.7 m/s 96.1 mm 15.8° 1021.6 hPa 1.7 m/s 96.1 mm
 06:37     20:29    Daglengte: 13:52 Zondag 21 Aug
02:00 14.8° 1021.0 hPa 1.6 m/s 96.1 mm 14.8° 1021.0 hPa 1.6 m/s 96.1 mm
05:00 14.2° 1020.1 hPa 1.9 m/s 96.1 mm 14.2° 1020.1 hPa 1.9 m/s 96.1 mm
08:00 15.7° 1019.2 hPa 1.4 m/s 96.1 mm 15.7° 1019.2 hPa 1.4 m/s 96.1 mm
11:00 21.8° 1017.6 hPa 1.5 m/s 96.1 mm 21.8° 1017.6 hPa 1.5 m/s 96.1 mm
14:00 24.5° 1015.8 hPa 2.2 m/s 96.1 mm 24.5° 1015.8 hPa 2.2 m/s 96.1 mm
17:00 24.5° 1014.9 hPa 1.8 m/s 96.1 mm 24.5° 1014.9 hPa 1.8 m/s 96.1 mm
20:00 19.0° 1016.0 hPa 0.7 m/s 96.1 mm 19.0° 1016.0 hPa 0.7 m/s 96.1 mm
23:00 17.3° 1016.6 hPa 1.8 m/s 96.1 mm 17.3° 1016.6 hPa 1.8 m/s 96.1 mm
 06:38     20:27    Daglengte: 13:49 Maandag 22 Aug
02:00 15.4° 1016.3 hPa 2.0 m/s 96.1 mm 15.4° 1016.3 hPa 2.0 m/s 96.1 mm
05:00 14.4° 1016.0 hPa 1.8 m/s 96.1 mm 14.4° 1016.0 hPa 1.8 m/s 96.1 mm
08:00 16.2° 1015.8 hPa 1.7 m/s 96.1 mm 16.2° 1015.8 hPa 1.7 m/s 96.1 mm
11:00 23.1° 1013.8 hPa 1.3 m/s 96.1 mm 23.1° 1013.8 hPa 1.3 m/s 96.1 mm
14:00 25.1° 1013.1 hPa 2.2 m/s 96.1 mm 25.1° 1013.1 hPa 2.2 m/s 96.1 mm
17:00 23.4° 1013.5 hPa 1.1 m/s 96.2 mm 23.4° 1013.5 hPa 1.1 m/s 96.2 mm
20:00 19.3° 1014.4 hPa 1.6 m/s 96.3 mm 19.3° 1014.4 hPa 1.6 m/s 96.3 mm
23:00 18.2° 1015.2 hPa 1.7 m/s 96.3 mm 18.2° 1015.2 hPa 1.7 m/s 96.3 mm
 06:39     20:25    Daglengte: 13:46 Dinsdag 23 Aug
02:00 18.0° 1015.2 hPa 1.1 m/s 96.3 mm 18.0° 1015.2 hPa 1.1 m/s 96.3 mm
05:00 17.4° 1015.5 hPa 0.5 m/s 96.3 mm 17.4° 1015.5 hPa 0.5 m/s 96.3 mm
08:00 17.1° 1016.4 hPa 0.5 m/s 96.3 mm 17.1° 1016.4 hPa 0.5 m/s 96.3 mm
11:00 21.0° 1016.4 hPa 1.4 m/s 96.3 mm 21.0° 1016.4 hPa 1.4 m/s 96.3 mm
14:00 24.7° 1014.5 hPa 1.8 m/s 96.3 mm 24.7° 1014.5 hPa 1.8 m/s 96.3 mm
17:00 25.2° 1014.0 hPa 1.8 m/s 96.3 mm 25.2° 1014.0 hPa 1.8 m/s 96.3 mm
20:00 19.9° 1015.4 hPa 0.5 m/s 96.3 mm 19.9° 1015.4 hPa 0.5 m/s 96.3 mm
23:00 17.4° 1017.1 hPa 2.1 m/s 96.3 mm 17.4° 1017.1 hPa 2.1 m/s 96.3 mm
 06:40     20:24    Daglengte: 13:44 Woensdag 24 Aug
02:00 16.9° 1016.5 hPa 1.8 m/s 96.3 mm 16.9° 1016.5 hPa 1.8 m/s 96.3 mm
05:00 17.3° 1016.1 hPa 1.6 m/s 96.3 mm 17.3° 1016.1 hPa 1.6 m/s 96.3 mm
08:00 18.6° 1016.0 hPa 1.5 m/s 96.3 mm 18.6° 1016.0 hPa 1.5 m/s 96.3 mm
11:00 24.8° 1014.8 hPa 1.5 m/s 96.3 mm 24.8° 1014.8 hPa 1.5 m/s 96.3 mm
14:00 27.9° 1013.7 hPa 2.0 m/s 96.4 mm 27.9° 1013.7 hPa 2.0 m/s 96.4 mm
20:00 21.6° 1014.3 hPa 0.6 m/s 97.0 mm 21.6° 1014.3 hPa 0.6 m/s 97.0 mm
 06:42     20:22    Daglengte: 13:40 Donderdag 25 Aug
02:00 16.5° 1017.7 hPa 1.5 m/s 101.2 mm 16.5° 1017.7 hPa 1.5 m/s 101.2 mm
08:00 17.7° 1018.4 hPa 1.8 m/s 105.1 mm 17.7° 1018.4 hPa 1.8 m/s 105.1 mm
14:00 26.9° 1017.2 hPa 1.8 m/s 105.2 mm 26.9° 1017.2 hPa 1.8 m/s 105.2 mm
20:00 21.6° 1017.7 hPa 1.3 m/s 105.5 mm 21.6° 1017.7 hPa 1.3 m/s 105.5 mm
 06:43     20:20    Daglengte: 13:37 Vrijdag 26 Aug
02:00 17.3° 1019.5 hPa 2.1 m/s 105.5 mm 17.3° 1019.5 hPa 2.1 m/s 105.5 mm
08:00 18.6° 1019.0 hPa 1.4 m/s 105.5 mm 18.6° 1019.0 hPa 1.4 m/s 105.5 mm
14:00 28.5° 1016.9 hPa 2.0 m/s 105.5 mm 28.5° 1016.9 hPa 2.0 m/s 105.5 mm
20:00 21.2° 1018.3 hPa 1.0 m/s 105.7 mm 21.2° 1018.3 hPa 1.0 m/s 105.7 mm
 06:44     20:18    Daglengte: 13:34 Zaterdag 27 Aug
02:00 18.7° 1019.1 hPa 2.4 m/s 105.7 mm 18.7° 1019.1 hPa 2.4 m/s 105.7 mm
08:00 19.3° 1019.2 hPa 1.4 m/s 0.6 mm
14:00 28.3° 1017.5 hPa 1.5 m/s 0.6 mm
20:00 22.5° 1018.0 hPa 0.9 m/s 2.0 mm
 06:46     20:16    Daglengte: 13:30 Zondag 28 Aug
02:00 18.4° 1019.9 hPa 1.8 m/s 0.7 mm
08:00 19.2° 1020.3 hPa 1.6 m/s 0.3 mm
14:00 28.7° 1018.7 hPa 1.5 m/s 0.5 mm
20:00 22.2° 1019.0 hPa 0.8 m/s 2.7 mm
 06:47     20:14    Daglengte: 13:27 Maandag 29 Aug
02:00 18.4° 1020.7 hPa 1.9 m/s 0.0 mm
08:00 19.2° 1021.1 hPa 1.6 m/s 0.3 mm
14:00 29.0° 1019.4 hPa 1.6 m/s 0.5 mm
20:00 22.3° 1019.5 hPa 0.5 m/s 1.7 mm
 06:48     20:12    Daglengte: 13:24 Dinsdag 30 Aug
02:00 18.6° 1020.9 hPa 1.7 m/s 0.8 mm
08:00 19.1° 1020.9 hPa 1.5 m/s 0.7 mm
14:00 28.6° 1018.8 hPa 1.7 m/s 0.4 mm
20:00 22.1° 1018.6 hPa 0.5 m/s 2.0 mm
 06:49     20:10    Daglengte: 13:21 Woensdag 31 Aug
02:00 18.3° 1020.0 hPa 1.7 m/s 1.7 mm
08:00 18.7° 1019.5 hPa 1.4 m/s 0.8 mm
14:00 27.1° 1017.9 hPa 1.8 m/s 1.1 mm
20:00 21.0° 1018.0 hPa 0.3 m/s 2.8 mm
 06:51     20:08    Daglengte: 13:17 Donderdag 01 Sep
02:00 17.4° 1019.2 hPa 1.5 m/s 1.2 mm
08:00 18.1° 1019.0 hPa 1.4 m/s 0.2 mm